Погода Klodzko

Погода Klodzko : погода сейчас, прогноз погоды и архив. Всё, что Вы хотите узнать о погоде Klodzko!

Поиск расширенной информации на нашем сайте:

Другие новости

Новости СМИ2

Главная страница сайта

Новости сайта

03.07.2017

Напоминаем, что на нашем специализированном сайте Метеоцентр.Азия вы можете получить высокодетализированные автоматические прогнозы погоды по пунктам России, СНГ и мира в авиационном формате (включающие направление и скорость ветра, видимость, явления погоды, количество и форму облачности, нижнюю и верхнюю границу облачности).


Погода Klodzko - сегодня

Время (UTC), дата Ветер
(°,м/с) 
Видим.   Явления Облачность Т
(°С)
Тd
(°С)
f(%) Тe
(°С)
Pmin
(гПа)
dP
(гПа)
Po
(мм)
O2
(г/м3)
Тmin Tmax R s Состояние
почвы
09 05.07.18 330 (СЗ) 50000 м    4/1 1000 м средняя, верхняя 
[Cu med, cong|Ac cast|Ci fib]
+25.8 +11.2 40 +29  1010.9  -1  728  266           
15 05.07.18 310 (СЗ) 50000 м  слаб. ливневой дождь  9/9 1500 м кучево-дожд. 
[Cb cap]
+25.8 +14.3 49 +34  1008.9  -0.9  726  265           
21 05.07.18 270 (З) 45000 м  слаб. ливневой дождь  9/9 1500 м кучево-дожд. 
[Cb cap]
+20 +13.7 67 +27  1010.9  1.7  727  270           
15 06.07.18 нст () 30000 м  {ливн. осадки}  9/6 1200 м кучево-дожд., средняя, верхняя 
[Cb cap|Ac As|Ci sp]
+23.2 +14.7 59 +32  1013.3  -0.5  729  268           
03 07.07.18 170 (Ю) 20000 м    9/9 1500 м 
[Sc]
+12.8 +12.3 97 +19  1018.7  -0.1  732  279           
09 08.07.18 070 (В) 45000 м    9/8 1000 м средняя 
[Sc|Ac trans]
+19.7 +11.2 58 +24  1018.8  0.5  733  273           
21 08.07.18 140 (ЮВ) 30000 м    1/0 средняя 
[Ac trans]
+14.2 +11.9 86 +19  1019.8  0.5  733  278           
15 09.07.18 300 (СЗ) 40000 м    9/8 1500 м кучево-дожд., верхняя 
[Cb calv|Ci sp]
+23.9 +12.8 50 +30  1015.2  -0.6  731  268           
09 10.07.18 330 (СЗ) 12000 м  слаб. ливневой дождь  10/9 100 м кучево-дожд. 
[Cb cap]
+14.5 +14 97 +24  1016.1  730  277           
18 10.07.18 020 (С) 20000 м  в посл. час ливневой дождь  9/6 300 м кучево-дожд., средняя 
[Cb cap|Ac As]
+16 +14.9 93 +26  1015  0.9  730  275  +13.3  +18.7     
12 12.07.18 240 (ЮЗ) 15000 м  слаб. ливневой дождь  9/9 600 м кучево-дожд. 
[Cb cap]
+15.3 +12.4 83 +21  1015.1  0.4  730  276      0.2     
00 13.07.18 270 (З) 1{08}  20000 м  в посл. час ливневой дождь  9/9 400 м 
[Sc]
+14.4 +13.6 95 +23  1014.9  0.2  730  276         
12 13.07.18 300 (СЗ) 3{08}  40000 м  слаб. ливневой дождь  9/9 800 м кучево-дожд. 
[Cb cap]
+19.7 +14.5 72 +29  1016.8  0.2  731  272      0.4     
21 13.07.18 260 (З) 1{08}  45000 м    4/1 1500 м средняя 
[Sc|Ac trans]
+16.3 +13 81 +24  1018  1.6  732  276           
15 14.07.18 270 (З) 2{16}  12000 м  ливневой дождь, в посл. час гроза  8/8 1000 м кучево-дожд., средняя 
[Cb cap|Ac cuf]
+17.4 +13.7 79 +25  1016.7  -0.5  731  274           
00 15.07.18 210 (ЮЗ) 2000 м  в посл. час туман  3/0 средняя, верхняя 
[Ac trans|Ci sp]
+12.3 +12 98 +18  1018.3  0.2  732  280           
03 15.07.18 190 (Ю) 0200 м  туман  1/0 средняя 
[Ac trans]
+11.1 +10.9 99 +15  1018.4  -0.1  732  281           
12 15.07.18 360 (С) 3-12{12}  50000 м    3/3 1410 м верхняя 
[Cu med, cong|Ci fib]
+23.7 +12.7 50 +29  1015.4  -1.1  731  269           
03 16.07.18 210 (ЮЗ) 20000 м  местами туман поземный  1/1 1500 м верхняя 
[Sc|Ci sp]
+9.2 +8.6 96 +10  1016.8  -0.1  730  283           
09 17.07.18 300 (СЗ) 3{08}  20000 м  слаб. ливневой дождь  10/8 720 м кучево-дожд., средняя 
[Cb cap|Ac As]
+18.6 +15.3 81 +29  1010.1  -0.3  727  271           
12 17.07.18 300 (СЗ) 3{08}  12000 м  дождь{ливн. осадки}  10/3 600 м средняя 
[Sc|As op]
+17.5 +15.7 89 +29  1010.7  0.4  727  272         
15 17.07.18 150 (ЮВ) 1{08}  12000 м  дождь  10/1 1000 м средняя 
[Cu med, cong|As op]
+17.5 +16.7 95 +32  1010.1  -0.5  726  271           
21 17.07.18 300 (СЗ) 30000 м  {ливн. осадки}  9/9 750 м 
[Sc]
+17.5 +15.5 88 +28  1009.8  -0.1  726  272           
06 19.07.18 290 (З) 25000 м  {дождь}  10/9 750 м 
[Sc]
+17.4 +14.5 83 +27  1014.6  0.6  730  273  +16.6  +18.5  0.6    мокрая 
03 20.07.18 тихо ()   20000 м  {ливн. осадки}  9/3 600 м кучево-дожд., средняя 
[Cb cap|Ac As]
+16.1 +14.6 91 +25  1015.8  -0.3  730  275           
Время (UTC), дата Ветер
(°,м/с) 
Видим.   Явления Облачность Т
(°С)
Тd
(°С)
f(%) Тe
(°С)
Pmin
(гПа)
dP
(гПа)
Po
(мм)
O2
(г/м3)
Тmin Tmax R s Состояние
почвы

Для получения пояснительной информации подведите курсор к названию столбца.

ПОГОДА Klodzko - архив

Всё, что Вы хотите узнать о погоде Klodzko - удобно и подробно!

Выберите нужную дату (начиная с 1 января 2015* года) и нажмите кнопку "Найти".
Будут отображены архивные сводки погоды по пункту Klodzko, начиная с указанной даты.


Отображать данные в формате CSV (для использования в таблицах Excel)


Внимание! Наш архив погоды предназначен исключительно для личного некоммерческого использования в познавательных целях. Если Вам необходимы официальные справки о состоянии погоды (для производственных, юридических, коммерческих и т.п. целей), обращайтесь в органы Росгидромета.

*Примечание: данная дата относится к архиву по метеостанциям СССР (Россия, СНГ, Балтия).
Архив по метеостанциям Зарубежной Европы и Азии (кроме Китая) хранится 10 дней, по другим регионам земного шара (Китай, Африка, Америка, Австралия, Океания) - 1 день.

Klodzko - район местоположения метеостанции


Название, широта, долгота, высота метеостанции:
Klodzko 50.4°ш. 16.6°д. 357 м над ур. моря [Poland]

Дополнительная информация

В oтличие oт бoльшинства пoгoдных сайтoв мы публикуем пoдрoбную метеoинфoрмацию в детальнoм прoфессиoнальнoм фoрмате.

Характеристики температуры и влажнoсти вoздуха измеряются на высoте 2 м в тени вдали oт зданий и деревьев.
Скoрoсть ветра измеряется на высoте 10 м (на урoвне рoста челoвека скoрoсть ветра ниже в 1.5-2 раза). Если метеoстанция нахoдится в гoрoде или в лесу, тo скoрoсть ветра занижена на 2-4 м/с пo сравнению с oткрытым местoм. Скoрoсть ветра над акватoриями крупных рек и oзёр, а также на вершинах хoлмoв на 2-5 м/с выше, чем в oбычных услoвиях.
Атмoсфернoе давление в разных тoчках местнoсти мoжет значительнo oтличаться oт давления на метеoстанции, в зависимoсти oт услoвий рельефа (при пoдъёме на 10 м давление пoнижается примернo на 1 мм рт.ст.).